Location: Unspecified
(35.7250°N, 0.0000°E)
Time: 20:18:20
(UTC+00:00)

Courier 1B Rocket - Pass Details

Date: 20 August 2020
Orbit: 920 x 1202 km, 28.2° (Epoch: 01 October)

Event Time Altitude Azimuth Distance (km) Brightness Sun altitude
Exits shadow 02:19:46 12° 127° (SE) 2,496 7.1 -32.2°
Drops below altitude 10° 02:20:10 10° 126° (SE) 2,630 7.3 -32.1°
Sets 02:23:01 0° 118° (ESE) 3,599 8.1 -31.7°
